248  
ASUS41 KPHI 010712  
RWRPHI  
 
REGIONAL WEATHER ROUNDUP  
NATIONAL WEATHER SERVICE MOUNT HOLLY NJ  
300 AM EDT SAT AUG 01 2015  
 
NOTE: "FAIR" INDICATES FEW OR NO CLOUDS BELOW 12,000 FEET WITH NO  
SIGNIFICANT WEATHER AND/OR S TO VISIBILITY
.  
 
* = STATION DOES NOT REPORT PRECIPITATION (E.G. RAIN, SNOW, ETC.)  
OR FOG.
 
 
NJZ015>026-010800-  
SOUTHERN NEW JERSEY  
 
CITY SKY/WX TMP DP RH WIND PRES REMARKS
 
POMONA CLEAR 75 67 76 SW8 29.85F  
RIO GRANDE* CLEAR 73 66 78 SW6 29.87F  
MILLVILLE CLEAR 71 66 84 SW3 29.86S  
WRIGHTSTOWN CLEAR 70 63 79 SW6 29.81F  
MOUNT HOLLY CLEAR 68 62 81 CALM 29.83F  
TRENTON CLEAR 73 61 65 W5 29.82F  
 

 
NJZ001>014-010800-  
NORTHERN NEW JERSEY  
 
CITY SKY/WX TMP DP RH WIND PRES REMARKS
 
SUSSEX CLEAR 63 60 90 CALM 29.82F  
ANDOVER* N/A 63 62 97 CALM 29.83F  
MORRISTOWN PTCLDY 64 59 82 CALM 29.81F  
NEWARK MOCLDY 76 60 57 SW6 29.80F  
TETERBORO MOCLDY 75 60 59 CALM 29.79F  
CALDWELL MOCLDY 71 60 68 W3 29.81F  
SOMERVILLE MOCLDY 64 61 90 CALM 29.80F  
ALLAIRE* CLEAR 72 57 60 SW6 29.83F  
TOMS RIVER* N/A 66 61 82 CALM 29.84F  
 

 
PAZ043-044-047-054-055-060>062-066>071-010800-  
EASTERN PENNSYLVANIA  
 
CITY SKY/WX TMP DP RH WIND PRES REMARKS
 
PHILADELPHIA PTCLDY 76 65 68 SW9 29.84F  
NORTH PHILA CLEAR 78 61 55 SW8 29.84F  
BLUE BELL CLEAR 64 63 94 CALM 29.83F  
DOYLESTOWN CLEAR 68 60 75 VRB3 29.83F  
QUAKERTOWN* PTCLDY 64 63 94 CALM 29.85S  
POTTSTOWN CLEAR 67 62 84 CALM 29.85F  
LANCASTER CLEAR 70 63 78 CALM 29.85F  
COATESVILLE PTCLDY 72 63 73 SW3 29.87S  
READING CLEAR 70 62 76 CALM 29.83F  
ALLENTOWN CLEAR 66 62 87 CALM 29.83S  
MOUNT POCONO CLEAR 62 57 83 W5 29.87F  
HAZLETON CLEAR 70 59 68 CALM 29.90S  
WILKES BARRE CLEAR 67 59 75 CALM 29.83F  
 

 
DEZALL-MDZ008-012-015-019-020-010800-  
DELAWARE AND EASTERN MARYLAND  
 
CITY SKY/WX TMP DP RH WIND PRES REMARKS
 
WILMINGTON CLEAR 71 65 81 W7 29.85F  
DOVER CLEAR 72 68 86 SW8 29.84F  
GEORGETOWN CLEAR 70 65 84 SW3 29.88F  
EASTON CLEAR 74 70 88 CALM 29.91S  
PATUXENT CLEAR 71 65 81 SW6 29.88F  
OCEAN CITY CLEAR 73 65 75 W6 29.88S  
WALLOPS ISLAND CLEAR 74 67 78 SW7 29.89S  
CAMBRIDGE CLEAR 72 68 88 CALM 29.88S  
SALISBURY CLEAR 72 67 84 CALM 29.88S  
 

 
PAZ001-021-NYZ056-072-MDZ011-DCZ001-010800-  
OTHER NEARBY LOCATIONS  
 
CITY SKY/WX TMP DP RH WIND PRES REMARKS
 
HARRISBURG CLEAR 75 61 61 W6 29.84F  
STATE COLLEGE MOCLDY 68 60 76 W8 29.87S  
WILLIAMSPORT CLEAR 65 61 87 NW7 29.82S  
BINGHAMTON MOCLDY 67 59 75 SW6 29.82F  
NEW YORK CITY PTCLDY 79 57 46 VRB3 29.83F  
BALTIMORE PTCLDY 71 63 75 CALM 29.86F  
WASHINGTON DC PTCLDY 76 64 66 S6 29.88F  
 

 
 
CLICK HERE TO GO TO PREVIOUS BULLETINS.

The Nexlab PA Page
The Nexlab NJ Page
The Nexlab DE Page
The Nexlab MD Page Main Text Page